This is the latest recevied weather packets stored in our database for station/object K5KVN. If no packets are shown the sender has not sent any weather packets the latest 10 day(s).
| Time | Temp. | Humidity | Pressure | Rain* | Wind** | Luminosity | Snow |
|---|---|---|---|---|---|---|---|
| 1777784254 | 6.67° C | 87% | 1021.2 hPa | 0 mm | - | - | - |
| 1777783653 | 6.67° C | 86% | 1021.2 hPa | 0 mm | - | - | - |
| 1777783056 | 7.22° C | 85% | 1021.2 hPa | 0 mm | - | - | - |
| 1777782454 | 7.22° C | 84% | 1021.3 hPa | 0 mm | - | - | - |
| 1777781854 | 7.22° C | 83% | 1021.2 hPa | 0 mm | - | - | - |
| 1777781309 | 7.78° C | 82% | 1021.2 hPa | 0 mm | - | - | - |
| 1777780651 | 7.78° C | 82% | 1021.2 hPa | 0 mm | - | - | - |
| 1777780049 | 8.33° C | 82% | 1021.1 hPa | 0 mm | - | - | - |
| 1777779452 | 8.33° C | 81% | 1021.2 hPa | 0 mm | - | - | - |
| 1777778849 | 8.33° C | 80% | 1021.2 hPa | 0 mm | - | - | - |
| 1777778245 | 8.89° C | 80% | 1021.1 hPa | 0 mm | - | - | - |
| 1777777645 | 8.89° C | 77% | 1021 hPa | 0 mm | - | - | - |
| 1777777045 | 9.44° C | 76% | 1021 hPa | 0 mm | - | - | - |
| 1777776448 | 9.44° C | 76% | 1021 hPa | 0 mm | - | - | - |
| 1777775845 | 10° C | 73% | 1020.9 hPa | 0 mm | - | - | - |
| 1777775245 | 10.56° C | 72% | 1020.8 hPa | 0 mm | - | - | - |
| 1777774705 | 10.56° C | 69% | 1020.6 hPa | 0 mm | - | - | - |
| 1777774043 | 11.11° C | 69% | 1020.5 hPa | 0 mm | - | - | - |
| 1777773446 | 11.67° C | 71% | 1020.5 hPa | 0 mm | - | - | - |
| 1777772843 | 12.22° C | 70% | 1020.2 hPa | 0 mm | - | - | - |
| 1777772243 | 12.78° C | 67% | 1020.1 hPa | 0 mm | - | - | - |
| 1777771643 | 13.33° C | 62% | 1020 hPa | 0 mm | - | - | - |
| 1777771043 | 13.89° C | 57% | 1019.9 hPa | 0 mm | - | - | - |
| 1777770502 | 15° C | 54% | 1019.8 hPa | 0 mm | - | - | - |
| 1777769843 | 15.56° C | 50% | 1019.8 hPa | 0 mm | - | - | - |
* Rain latest hour (hover to see other rain measurements)
** Current wind speed in m/s (hover to see current wind gust speed)